Location: Igloolik
(69.3800°N, 81.8000°W)
Time: 06:46:03
(UTC-06:00)

Amateur Radio Satellites - All Passes

Search period start: 20 January 2018 06:16
Search period end: 21 January 2018 06:16
Location: Igloolik, 69.3800°N, 81.8000°W

Satellite Date Start Highest point End Downlink Frequencies (MHz)
Time Altitude Azimuth
POLYITAN 1 20 Jan 06:19:18 06:22:14 18° 17° (NNE) 06:25:11 437.675
ITAMSAT 1 20 Jan 06:21:34 06:26:23 39° 322° (NW) 06:31:12 435.822/435.867
AAUSAT CUBESAT 2 20 Jan 06:26:28 06:29:46 23° 87° (E) 06:33:03 437.432
XW-2A 20 Jan 06:30:24 06:32:49 18° 87° (E) 06:35:11 145.665 - 145.685
Oscar 11 20 Jan 06:34:18 06:37:09 17° 79° (E) 06:40:00 .
Gurwin Techsat 1B 20 Jan 06:35:00 06:39:11 24° 354° (N) 06:43:23 435.225
NANOSAT C BR1 20 Jan 06:35:37 06:38:37 19° 20° (NNE) 06:41:37 145.865
LilacSat-2 20 Jan 06:36:25 06:40:17 82° 294° (WNW) 06:44:05 437.200
XW-2C 20 Jan 06:39:48 06:43:38 82° 295° (WNW) 06:47:26 145.795 - 145.815
YUBILEINY 20 Jan 06:40:48 06:49:16 48° 37° (NE) 06:57:40 435.215
SEEDS 20 Jan 06:41:58 06:45:59 41° 98° (E) 06:49:57 437.485
SO-50 20 Jan 06:44:23 06:48:09 26° 142° (SE) 06:51:58 436.795
DOVE 4 20 Jan 06:47:26 06:51:17 36° 313° (NW) 06:55:13 437.250
QB50P2 20 Jan 06:48:19 06:51:32 21° 25° (NNE) 06:54:45 145.880/145.840
BUGSAT 1 20 Jan 06:50:06 06:52:41 16° 7° (N) 06:55:19 437.445
CUTE 1.7 + AOD 2 20 Jan 06:52:48 06:57:02 62° 105° (ESE) 07:01:13 437.475
CUBEBUG 2 20 Jan 06:55:27 07:00:05 54° 102° (ESE) 07:04:46 437.445
Oscar 19 20 Jan 06:55:55 06:59:56 23° 3° (N) 07:03:58 437.125/150
AO-7 20 Jan 07:00:59 07:09:06 55° 336° (NNW) 07:17:11 .
UWE-3 20 Jan 07:02:38 07:07:09 44° 98° (E) 07:11:39 435.000/436.395/437.385
TIGRISAT 20 Jan 07:05:18 07:09:49 70° 60° (ENE) 07:14:28 435.000
AIST 2D 20 Jan 07:12:40 07:15:33 24° 43° (NE) 07:18:26 435.315
DELFI C3 20 Jan 07:12:53 07:13:26 10° 73° (ENE) 07:14:00 145.870
KAITUO 1B 20 Jan 07:16:57 07:20:38 59° 300° (WNW) 07:24:17 145.475/437.950
XW-2F 20 Jan 07:17:10 07:20:52 52° 303° (WNW) 07:24:32 145.980 - 146.000
EO-79 20 Jan 07:19:06 07:22:33 24° 32° (NNE) 07:26:00 145.935-145.965
DUCHIFAT 1 20 Jan 07:19:10 07:22:29 23° 29° (NNE) 07:25:49 145.980
UNISAT 6 20 Jan 07:20:22 07:24:55 85° 64° (ENE) 07:29:36 437.425
O/OREOS (USA 219) 20 Jan 07:21:11 07:25:42 80° 213° (SSW) 07:30:11 437.305
M-CUBED/EXP-1 PRIME 20 Jan 07:24:04 07:27:35 39° 325° (NW) 07:30:50 437.505
XW-2D 20 Jan 07:26:09 07:29:48 45° 306° (NW) 07:33:25 145.860 - 145.880
ZACube-1 20 Jan 07:28:18 07:32:44 43° 98° (E) 07:37:07 437.345
NUDT-PHONESAT 20 Jan 07:29:33 07:33:12 51° 303° (WNW) 07:36:47 437.300
RS-15 20 Jan 07:33:25 07:43:40 33° 113° (ESE) 07:53:37 29.354- 29.394
AO-73 20 Jan 07:35:37 07:40:04 44° 99° (E) 07:44:26 145.935
AO-91 20 Jan 07:40:17 07:42:22 14° 13° (NNE) 07:44:31 145.960
XW-2B 20 Jan 07:43:47 07:47:20 38° 309° (NW) 07:50:51 145.730 - 145.750
FO-29 20 Jan 07:44:59 07:50:37 33° 269° (W) 07:55:44 435.910
PRISM 20 Jan 07:47:54 07:51:54 60° 58° (ENE) 07:55:56 437.425
CUTE-I 20 Jan 07:48:20 07:53:36 62° 307° (NW) 07:58:52 437.470
POLYITAN 1 20 Jan 07:53:19 07:57:04 31° 40° (NE) 08:00:52 437.675
HO-68 20 Jan 07:56:04 08:03:18 88° 120° (ESE) 08:10:30 435.675
STRAND 1 20 Jan 07:57:40 08:00:54 17° 284° (WNW) 08:04:09 437.568
ITAMSAT 1 20 Jan 08:00:45 08:04:57 25° 345° (NNW) 08:09:10 435.822/435.867
Max Valier Satellite 20 Jan 08:01:19 08:03:32 15° 81° (E) 08:05:45 145.860
AAUSAT CUBESAT 2 20 Jan 08:01:44 08:05:53 74° 109° (ESE) 08:10:00 437.432
XW-2A 20 Jan 08:02:41 08:06:06 69° 108° (ESE) 08:09:29 145.665 - 145.685
NANOSAT C BR1 20 Jan 08:09:36 08:13:26 33° 43° (NE) 08:17:17 145.865
Oscar 11 20 Jan 08:10:01 08:14:17 51° 102° (ESE) 08:18:32 .
LilacSat-2 20 Jan 08:10:54 08:14:14 28° 317° (NW) 08:17:31 437.200
Gurwin Techsat 1B 20 Jan 08:13:34 08:17:58 27° 19° (NNE) 08:22:22 435.225
XW-2C 20 Jan 08:14:11 08:17:29 28° 317° (NW) 08:20:44 145.795 - 145.815
SEEDS 20 Jan 08:17:44 08:21:54 62° 301° (WNW) 08:26:01 437.485
EO-88 20 Jan 08:22:03 08:24:18 15° 82° (E) 08:26:33 145.990 - 145.960
QB50P2 20 Jan 08:22:33 08:26:33 40° 48° (NE) 08:30:36 145.880/145.840
SO-50 20 Jan 08:23:34 08:27:52 43° 165° (SSE) 08:32:17 436.795
BUGSAT 1 20 Jan 08:23:40 08:26:58 23° 30° (NNE) 08:30:18 437.445
DOVE 4 20 Jan 08:25:14 08:28:10 19° 337° (NNW) 08:31:09 437.250
CUTE 1.7 + AOD 2 20 Jan 08:28:47 08:32:51 44° 308° (NW) 08:36:53 437.475
CUBEBUG 2 20 Jan 08:32:12 08:36:49 56° 304° (NW) 08:41:29 437.445
Oscar 19 20 Jan 08:33:40 08:38:09 30° 27° (NNE) 08:42:37 437.125/150
YUBILEINY 20 Jan 08:38:25 08:47:16 83° 66° (ENE) 08:56:02 435.215
UWE-3 20 Jan 08:39:11 08:43:51 65° 301° (WNW) 08:48:30 435.000/436.395/437.385
TIGRISAT 20 Jan 08:42:34 08:46:51 40° 263° (W) 08:51:15 435.000
AIST 2D 20 Jan 08:44:48 08:48:20 73° 63° (ENE) 08:51:51 435.315
DELFI C3 20 Jan 08:45:47 08:49:23 33° 95° (E) 08:52:57 145.870
KAITUO 1B 20 Jan 08:51:09 08:54:07 22° 322° (NW) 08:57:02 145.475/437.950
XW-2F 20 Jan 08:51:30 08:54:24 21° 325° (NW) 08:57:17 145.980 - 146.000
AO-7 20 Jan 08:53:02 09:00:56 48° 3° (N) 09:08:50 .
DUCHIFAT 1 20 Jan 08:53:23 08:57:28 47° 52° (NE) 09:01:34 145.980
EO-79 20 Jan 08:53:32 08:57:41 53° 55° (NE) 09:01:53 145.935-145.965
UNISAT 6 20 Jan 08:58:02 09:02:08 32° 268° (W) 09:06:21 437.425
M-CUBED/EXP-1 PRIME 20 Jan 08:58:19 09:01:23 24° 348° (NNW) 09:04:17 437.505
XW-2D 20 Jan 09:00:33 09:03:19 20° 328° (NNW) 09:06:05 145.860 - 145.880
O/OREOS (USA 219) 20 Jan 09:00:42 09:04:45 33° 238° (WSW) 09:08:47 437.305
NUDT-PHONESAT 20 Jan 09:03:38 09:06:27 21° 325° (NW) 09:09:15 437.300
ZACube-1 20 Jan 09:04:41 09:09:16 66° 301° (WNW) 09:13:50 437.345
PCSat 20 Jan 09:11:12 09:14:14 15° 112° (ESE) 09:17:18 145.827
AO-73 20 Jan 09:11:58 09:16:32 64° 301° (WNW) 09:21:03 145.935
AO-91 20 Jan 09:14:54 09:17:50 24° 37° (NE) 09:20:57 145.960
XW-2B 20 Jan 09:18:10 09:20:46 18° 332° (NNW) 09:23:21 145.730 - 145.750
PRISM 20 Jan 09:23:31 09:27:24 41° 259° (W) 09:31:17 437.425
POLYITAN 1 20 Jan 09:28:12 09:32:29 77° 62° (ENE) 09:36:48 437.675
CUTE-I 20 Jan 09:28:24 09:33:05 32° 331° (NNW) 09:37:45 437.470
Max Valier Satellite 20 Jan 09:34:31 09:38:13 51° 104° (ESE) 09:41:51 145.860
FO-29 20 Jan 09:35:03 09:37:36 13° 294° (WNW) 09:40:04 435.910
XW-2A 20 Jan 09:35:34 09:38:38 32° 310° (NW) 09:41:42 145.665 - 145.685
AAUSAT CUBESAT 2 20 Jan 09:37:22 09:41:11 37° 312° (NW) 09:44:59 437.432
ITAMSAT 1 20 Jan 09:39:09 09:43:16 24° 9° (N) 09:47:23 435.822/435.867
RS-15 20 Jan 09:42:10 09:53:56 57° 143° (SE) 10:05:17 29.354- 29.394
LO-87 20 Jan 09:43:36 09:46:03 17° 84° (E) 09:48:29 145.935 - 145.965
HO-68 20 Jan 09:43:55 09:50:49 52° 325° (NW) 09:57:42 435.675
NANOSAT C BR1 20 Jan 09:44:34 09:48:51 87° 65° (ENE) 09:53:09 145.865
LilacSat-2 20 Jan 09:45:18 09:47:36 15° 339° (NNW) 09:49:52 437.200
Oscar 11 20 Jan 09:46:17 09:50:33 54° 305° (NW) 09:54:47 .
XW-2C 20 Jan 09:48:31 09:50:45 15° 339° (NNW) 09:52:59 145.795 - 145.815
Gurwin Techsat 1B 20 Jan 09:52:02 09:57:04 44° 43° (NE) 10:02:07 435.225
SEEDS 20 Jan 09:53:36 09:57:04 25° 323° (NW) 10:00:31 437.485
EO-88 20 Jan 09:55:07 09:58:44 54° 104° (ESE) 10:02:19 145.990 - 145.960
BUGSAT 1 20 Jan 09:57:40 10:01:41 50° 53° (NE) 10:05:46 437.445
QB50P2 20 Jan 09:57:57 10:02:14 72° 252° (WSW) 10:06:32 145.880/145.840
BEESAT 3 20 Jan 09:59:36 10:01:46 14° 129° (SE) 10:03:55 437.485
DOVE 4 20 Jan 10:02:17 10:04:41 15° 1° (N) 10:07:06 437.250
SO-50 20 Jan 10:03:29 10:07:53 46° 188° (S) 10:12:22 436.795
CUTE 1.7 + AOD 2 20 Jan 10:04:44 10:07:58 21° 331° (NNW) 10:11:11 437.475
CUBEBUG 2 20 Jan 10:08:54 10:12:49 27° 327° (NNW) 10:16:45 437.445
Oscar 19 20 Jan 10:11:44 10:16:49 56° 50° (NE) 10:21:56 437.125/150
UWE-3 20 Jan 10:15:46 10:19:48 29° 323° (NW) 10:23:49 435.000/436.395/437.385
ESTCUBE 1 20 Jan 10:17:05 10:20:55 26° 89° (E) 10:24:44 437.505/2401.250
AIST 2D 20 Jan 10:18:42 10:21:50 28° 266° (W) 10:24:56 435.315
DELFI C3 20 Jan 10:20:32 10:24:27 71° 298° (WNW) 10:28:23 145.870
VELOX 1 20 Jan 10:21:43 10:21:59 10° 70° (ENE) 10:22:15 145.980
TIGRISAT 20 Jan 10:22:24 10:24:49 14° 287° (WNW) 10:27:15 435.000
SPROUT 20 Jan 10:22:40 10:24:59 14° 76° (ENE) 10:27:18 437.525
KAITUO 1B 20 Jan 10:25:13 10:27:04 13° 345° (NNW) 10:28:55 145.475/437.950
XW-2F 20 Jan 10:25:36 10:27:27 13° 348° (NNW) 10:29:17 145.980 - 146.000
DUCHIFAT 1 20 Jan 10:28:56 10:33:08 59° 254° (WSW) 10:37:22 145.980
EO-79 20 Jan 10:29:23 10:33:33 51° 257° (WSW) 10:37:46 145.935-145.965
M-CUBED/EXP-1 PRIME 20 Jan 10:31:55 10:35:01 23° 10° (N) 10:37:57 437.505
XW-2D 20 Jan 10:34:37 10:36:23 13° 351° (N) 10:38:10 145.860 - 145.880
YUBILEINY 20 Jan 10:35:26 10:43:45 50° 273° (W) 10:52:00 435.215
NUDT-PHONESAT 20 Jan 10:37:31 10:39:14 13° 348° (NNW) 10:40:57 437.300
UNISAT 6 20 Jan 10:38:53 10:40:19 11° 291° (WNW) 10:41:47 437.425
ZACube-1 20 Jan 10:41:05 10:45:02 29° 323° (NW) 10:48:59 437.345
O/OREOS (USA 219) 20 Jan 10:41:21 10:43:00 12° 261° (W) 10:44:39 437.305
AO-7 20 Jan 10:44:41 10:52:51 59° 30° (NNE) 11:01:02 .
BEESAT 2 20 Jan 10:46:05 10:48:05 13° 127° (SE) 10:50:06 435.950
AO-73 20 Jan 10:48:19 10:52:14 28° 324° (NW) 10:56:08 145.935
AO-91 20 Jan 10:50:23 10:53:52 67° 61° (ENE) 10:57:39 145.960
PCSat 20 Jan 10:51:27 10:56:20 35° 135° (SE) 11:01:14 145.827
XW-2B 20 Jan 10:52:06 10:53:47 13° 355° (N) 10:55:29 145.730 - 145.750
PRISM 20 Jan 11:01:44 11:03:44 13° 282° (WNW) 11:05:44 437.425
POLYITAN 1 20 Jan 11:04:45 11:08:40 34° 265° (W) 11:12:37 437.675
CUTE-I 20 Jan 11:07:52 11:12:03 24° 355° (N) 11:16:15 437.470
Max Valier Satellite 20 Jan 11:08:27 11:12:03 45° 305° (NW) 11:15:38 145.860
XW-2A 20 Jan 11:08:36 11:10:34 15° 332° (NNW) 11:12:32 145.665 - 145.685
AAUSAT CUBESAT 2 20 Jan 11:12:55 11:15:50 19° 335° (NNW) 11:18:45 437.432
LO-87 20 Jan 11:16:32 11:20:09 60° 106° (ESE) 11:23:47 145.935 - 145.965
ITAMSAT 1 20 Jan 11:17:05 11:21:44 35° 33° (NNE) 11:26:25 435.822/435.867
LilacSat-2 20 Jan 11:18:56 11:20:39 13° 2° (N) 11:22:22 437.200
NANOSAT C BR1 20 Jan 11:21:18 11:25:03 29° 268° (W) 11:28:50 145.865
XW-2C 20 Jan 11:22:04 11:23:43 13° 2° (N) 11:25:22 145.795 - 145.815
Oscar 11 20 Jan 11:22:33 11:26:05 24° 327° (NNW) 11:29:35 .
EO-88 20 Jan 11:28:52 11:32:21 42° 306° (NW) 11:35:48 145.990 - 145.960
SEEDS 20 Jan 11:29:08 11:31:42 16° 347° (NNW) 11:34:17 437.485
HO-68 20 Jan 11:31:09 11:37:38 39° 351° (N) 11:44:06 435.675
Gurwin Techsat 1B 20 Jan 11:31:29 11:36:50 83° 246° (WSW) 11:42:13 435.225
BUGSAT 1 20 Jan 11:33:01 11:37:06 54° 256° (WSW) 11:41:14 437.445
BEESAT 3 20 Jan 11:34:50 11:38:20 30° 152° (SSE) 11:41:51 437.485
QB50P2 20 Jan 11:35:19 11:38:44 23° 273° (W) 11:42:09 145.880/145.840
DOVE 4 20 Jan 11:38:14 11:41:13 19° 25° (NNE) 11:44:13 437.250
CUTE 1.7 + AOD 2 20 Jan 11:40:09 11:42:40 15° 354° (N) 11:45:08 437.475
SO-50 20 Jan 11:43:40 11:47:44 31° 212° (SSW) 11:51:52 436.795
CUBEBUG 2 20 Jan 11:45:08 11:48:18 18° 350° (N) 11:51:31 437.445
Oscar 19 20 Jan 11:51:03 11:56:13 61° 253° (WSW) 12:01:25 437.125/150
UWE-3 20 Jan 11:51:57 11:55:11 19° 346° (NNW) 11:58:26 435.000/436.395/437.385
AO-85 20 Jan 11:52:31 11:54:24 13° 121° (ESE) 11:56:21 145.980
RS-15 20 Jan 11:53:24 12:05:31 72° 173° (S) 12:17:06 29.354- 29.394
ESTCUBE 1 20 Jan 11:53:49 11:58:22 80° 111° (ESE) 12:02:54 437.505/2401.250
DELFI C3 20 Jan 11:55:28 11:58:47 26° 320° (NW) 12:02:06 145.870
VELOX 1 20 Jan 11:55:57 11:59:52 30° 93° (E) 12:03:47 145.980
SPROUT 20 Jan 11:57:52 12:02:00 42° 100° (E) 12:06:07 437.525
KAITUO 1B 20 Jan 11:58:12 11:59:48 12° 8° (N) 12:01:24 145.475/437.950
XW-2F 20 Jan 11:58:32 12:00:19 13° 11° (N) 12:02:06 145.980 - 146.000
UKube-1 20 Jan 12:04:28 12:06:08 12° 74° (ENE) 12:07:46 .
M-CUBED/EXP-1 PRIME 20 Jan 12:05:09 12:08:49 36° 32° (NNE) 12:12:14 437.505
DUCHIFAT 1 20 Jan 12:06:36 12:09:39 19° 277° (W) 12:12:43 145.980
XW-2D 20 Jan 12:07:22 12:09:19 14° 14° (NNE) 12:11:16 145.860 - 145.880
EO-79 20 Jan 12:07:30 12:10:17 17° 280° (W) 12:13:05 145.935-145.965
NUDT-PHONESAT 20 Jan 12:10:11 12:11:50 13° 10° (N) 12:13:28 437.300
DX 1 20 Jan 12:14:19 12:17:14 17° 82° (E) 12:20:07 434.975-435.025
ZACube-1 20 Jan 12:17:07 12:20:17 19° 346° (NNW) 12:23:26 437.345
BEESAT 2 20 Jan 12:21:16 12:24:48 29° 149° (SSE) 12:28:20 435.950
AO-73 20 Jan 12:24:17 12:27:25 18° 347° (NNW) 12:30:32 145.935
XW-2B 20 Jan 12:24:38 12:26:44 14° 18° (NNE) 12:28:50 145.730 - 145.750
AO-91 20 Jan 12:27:34 12:30:44 31° 265° (W) 12:34:07 145.960
YUBILEINY 20 Jan 12:32:13 12:38:40 24° 301° (WNW) 12:45:05 435.215
PCSat 20 Jan 12:33:48 12:39:09 61° 160° (SSE) 12:44:32 145.827
AO-7 20 Jan 12:37:02 12:45:28 86° 238° (WSW) 12:53:56 .
XW-2A 20 Jan 12:41:39 12:42:07 10° 355° (N) 12:42:35 145.665 - 145.685
Max Valier Satellite 20 Jan 12:42:31 12:45:14 19° 327° (NNW) 12:47:56 145.860
POLYITAN 1 20 Jan 12:44:26 12:45:45 11° 288° (WNW) 12:47:05 437.675
CUTE-I 20 Jan 12:46:32 12:50:56 27° 19° (NNE) 12:55:22 437.470
AAUSAT CUBESAT 2 20 Jan 12:47:52 12:50:07 14° 358° (N) 12:52:22 437.432
LO-87 20 Jan 12:50:04 12:53:29 38° 308° (NW) 12:56:54 145.935 - 145.965
LilacSat-2 20 Jan 12:51:14 12:53:45 17° 25° (NNE) 12:56:15 437.200
XW-2C 20 Jan 12:54:15 12:56:43 17° 25° (NNE) 12:59:11 145.795 - 145.815
ITAMSAT 1 20 Jan 12:55:35 13:00:46 72° 57° (ENE) 13:05:58 435.822/435.867
Oscar 11 20 Jan 12:58:22 13:01:08 17° 351° (N) 13:03:52 .
50 SAT 20 Jan 13:02:42 13:05:14 22° 94° (E) 13:07:47 437.505
EO-88 20 Jan 13:02:46 13:05:20 18° 329° (NNW) 13:07:53 145.990 - 145.960
SEEDS 20 Jan 13:03:40 13:06:09 16° 10° (N) 13:08:38 437.485
ITUPSAT 1 20 Jan 13:08:09 13:10:05 12° 71° (ENE) 13:12:02 437.325
BUGSAT 1 20 Jan 13:10:35 13:13:22 17° 278° (W) 13:16:11 437.445
BEESAT 3 20 Jan 13:11:32 13:15:20 43° 174° (S) 13:19:07 437.485
Gurwin Techsat 1B 20 Jan 13:12:46 13:17:30 32° 269° (W) 13:22:16 435.225
DOVE 4 20 Jan 13:14:16 13:18:08 38° 48° (NE) 13:22:01 437.250
CUTE 1.7 + AOD 2 20 Jan 13:14:27 13:17:15 17° 18° (NNE) 13:20:02 437.475
HO-68 20 Jan 13:17:41 13:24:15 41° 17° (NNE) 13:30:48 435.675
CUBEBUG 2 20 Jan 13:20:25 13:23:39 19° 14° (NNE) 13:26:56 437.445
SO-50 20 Jan 13:24:29 13:27:07 15° 234° (SW) 13:29:47 436.795
UWE-3 20 Jan 13:27:13 13:30:22 18° 10° (N) 13:33:31 435.000/436.395/437.385
AO-85 20 Jan 13:29:51 13:33:34 29° 145° (SE) 13:37:33 145.980
KAITUO 1B 20 Jan 13:30:01 13:32:40 18° 31° (NNE) 13:35:18 145.475/437.950
DELFI C3 20 Jan 13:30:16 13:32:34 15° 342° (NNW) 13:34:52 145.870
XW-2F 20 Jan 13:30:30 13:33:20 20° 33° (NNE) 13:36:10 145.980 - 146.000
ESTCUBE 1 20 Jan 13:30:47 13:35:01 39° 314° (NW) 13:39:11 437.505/2401.250
VELOX 1 20 Jan 13:32:23 13:36:50 87° 294° (WNW) 13:41:14 145.980
Oscar 19 20 Jan 13:32:30 13:36:35 23° 277° (W) 13:40:41 437.125/150
SPROUT 20 Jan 13:33:51 13:38:07 63° 302° (WNW) 13:42:23 437.525
M-CUBED/EXP-1 PRIME 20 Jan 13:38:56 13:43:01 88° 52° (NE) 13:46:49 437.505
UKube-1 20 Jan 13:39:24 13:43:24 36° 97° (E) 13:47:24 .
XW-2D 20 Jan 13:39:27 13:42:28 22° 37° (NE) 13:45:28 145.860 - 145.880
NUDT-PHONESAT 20 Jan 13:41:51 13:44:35 20° 33° (NNE) 13:47:19 437.300
MOZHAYETS 4 20 Jan 13:43:40 13:47:27 24° 86° (E) 13:51:13
CUBESAT XI-V 20 Jan 13:45:48 13:48:00 13° 72° (ENE) 13:50:10 437.345
BEESAT 20 Jan 13:47:33 13:50:58 19° 81° (E) 13:54:23 436.000
DX 1 20 Jan 13:50:06 13:54:23 52° 105° (ESE) 13:58:38 434.975-435.025
ZACube-1 20 Jan 13:52:13 13:55:17 18° 10° (N) 13:58:21 437.345
XW-2B 20 Jan 13:56:46 13:59:56 25° 41° (NE) 14:03:07 145.730 - 145.750
BEESAT 2 20 Jan 13:58:05 14:01:58 43° 172° (S) 14:05:50 435.950
AO-73 20 Jan 13:59:18 14:02:22 18° 10° (N) 14:05:26 145.935
RS-15 20 Jan 14:05:26 14:17:19 65° 204° (SSW) 14:28:38 29.354- 29.394
XW-2A 20 Jan 14:12:16 14:13:36 12° 18° (NNE) 14:14:55 145.665 - 145.685
Max Valier Satellite 20 Jan 14:16:18 14:17:57 13° 350° (N) 14:19:37 145.860
PCSat 20 Jan 14:16:57 14:22:22 70° 184° (S) 14:27:47 145.827
AAUSAT CUBESAT 2 20 Jan 14:21:37 14:24:21 17° 21° (NNE) 14:27:04 437.432
LilacSat-2 20 Jan 14:23:42 14:27:13 33° 48° (NE) 14:30:42 437.200
LO-87 20 Jan 14:23:44 14:26:11 17° 330° (NNW) 14:28:38 145.935 - 145.965
CUTE-I 20 Jan 14:25:08 14:30:10 45° 43° (NE) 14:35:12 437.470
XW-2C 20 Jan 14:26:37 14:30:05 33° 48° (NE) 14:33:33 145.795 - 145.815
YUBILEINY 20 Jan 14:29:10 14:32:10 12° 330° (NNW) 14:35:09 435.215
AO-7 20 Jan 14:31:17 14:39:14 45° 262° (W) 14:47:13 .
Oscar 11 20 Jan 14:33:09 14:36:01 17° 14° (NNE) 14:38:54 .
50 SAT 20 Jan 14:34:12 14:37:20 82° 296° (WNW) 14:40:28 437.505
ITAMSAT 1 20 Jan 14:35:37 14:40:36 44° 260° (W) 14:45:36 435.822/435.867
EO-88 20 Jan 14:36:23 14:37:51 12° 351° (N) 14:39:20 145.990 - 145.960
SEEDS 20 Jan 14:37:25 14:40:44 23° 33° (NNE) 14:44:04 437.485
ITUPSAT 1 20 Jan 14:44:58 14:49:24 34° 95° (E) 14:53:48 437.325
CUTE 1.7 + AOD 2 20 Jan 14:48:25 14:52:07 29° 40° (NE) 14:55:48 437.475
BEESAT 3 20 Jan 14:48:42 14:52:25 38° 197° (SSW) 14:56:06 437.485
DOVE 4 20 Jan 14:51:33 14:55:44 72° 251° (WSW) 14:59:55 437.250
CUBEBUG 2 20 Jan 14:55:14 14:59:13 30° 37° (NE) 15:03:16 437.445
Gurwin Techsat 1B 20 Jan 14:57:20 14:59:14 12° 294° (WNW) 15:01:09 435.225
UWE-3 20 Jan 15:01:52 15:05:42 27° 33° (NNE) 15:09:35 435.000/436.395/437.385
KAITUO 1B 20 Jan 15:02:24 15:05:57 41° 53° (NE) 15:09:31 145.475/437.950
XW-2F 20 Jan 15:03:09 15:06:50 47° 56° (NE) 15:10:31 145.980 - 146.000
DELFI C3 20 Jan 15:04:08 15:06:05 13° 6° (N) 15:08:01 145.870
HO-68 20 Jan 15:04:12 15:11:13 61° 42° (NE) 15:18:15 435.675
ESTCUBE 1 20 Jan 15:07:34 15:10:59 22° 338° (NNW) 15:14:23 437.505/2401.250
VELOX 1 20 Jan 15:09:00 15:12:59 34° 318° (NW) 15:16:58 145.980
AO-85 20 Jan 15:09:08 15:13:19 46° 169° (SSE) 15:17:53 145.980
SPROUT 20 Jan 15:09:53 15:13:30 27° 324° (NW) 15:17:07 437.525
XW-2D 20 Jan 15:12:20 15:16:06 56° 59° (ENE) 15:19:52 145.860 - 145.880
M-CUBED/EXP-1 PRIME 20 Jan 15:14:11 15:17:49 29° 254° (WSW) 15:21:13 437.505
NUDT-PHONESAT 20 Jan 15:14:12 15:17:48 46° 55° (NE) 15:21:24 437.300
UKube-1 20 Jan 15:15:28 15:19:48 74° 300° (WNW) 15:24:07 .
KKS-1 20 Jan 15:16:51 15:19:02 13° 76° (ENE) 15:21:14 437.445
MOZHAYETS 4 20 Jan 15:20:42 15:25:24 70° 109° (ESE) 15:30:03
CUBESAT XI-V 20 Jan 15:22:22 15:26:43 37° 96° (E) 15:31:02 437.345
BEESAT 20 Jan 15:25:04 15:29:48 53° 104° (ESE) 15:34:31 436.000
DX 1 20 Jan 15:26:25 15:30:40 53° 307° (NW) 15:34:54 434.975-435.025
ZACube-1 20 Jan 15:26:40 15:30:27 26° 33° (NNE) 15:34:15 437.345
XW-2B 20 Jan 15:29:52 15:33:42 69° 61° (ENE) 15:37:31 145.730 - 145.750
AO-73 20 Jan 15:33:42 15:37:30 26° 33° (NNE) 15:41:18 145.935
STARS 20 Jan 15:35:13 15:35:50 10° 71° (ENE) 15:36:27 437.465
BEESAT 2 20 Jan 15:35:26 15:39:15 40° 195° (SSW) 15:43:02 435.950
XW-2A 20 Jan 15:42:39 15:45:20 21° 40° (NE) 15:48:00 145.665 - 145.685
Max Valier Satellite 20 Jan 15:48:45 15:50:32 13° 13° (NNE) 15:52:18 145.860
AAUSAT CUBESAT 2 20 Jan 15:55:14 15:58:54 31° 44° (NE) 16:02:33 437.432
LO-87 20 Jan 15:57:07 15:58:28 12° 352° (N) 15:59:48 145.935 - 145.965
LilacSat-2 20 Jan 15:57:25 16:01:18 79° 251° (WSW) 16:05:10 437.200
XW-2C 20 Jan 16:00:13 16:04:03 79° 248° (WSW) 16:07:55 145.795 - 145.815
PCSat 20 Jan 16:00:13 16:05:29 52° 209° (SSW) 16:10:46 145.827
CUTE-I 20 Jan 16:04:43 16:10:03 81° 246° (WSW) 16:15:25 437.470
50 SAT 20 Jan 16:06:11 16:08:44 23° 316° (NW) 16:11:17 437.505
Oscar 11 20 Jan 16:07:26 16:11:09 28° 37° (NE) 16:14:51 .
EO-88 20 Jan 16:08:35 16:10:16 13° 14° (NNE) 16:11:57 145.990 - 145.960
SEEDS 20 Jan 16:11:43 16:15:49 52° 55° (NE) 16:19:55 437.485
RS-15 20 Jan 16:17:20 16:28:12 43° 235° (SW) 16:38:34 29.354- 29.394
ITAMSAT 1 20 Jan 16:18:08 16:21:25 17° 284° (WNW) 16:24:42 435.822/435.867
ITUPSAT 1 20 Jan 16:22:52 16:27:44 85° 296° (WNW) 16:32:35 437.325
CUTE 1.7 + AOD 2 20 Jan 16:23:17 16:27:33 75° 64° (ENE) 16:31:49 437.475
BEESAT 3 20 Jan 16:26:11 16:29:15 22° 220° (SW) 16:32:17 437.485
AO-7 20 Jan 16:28:36 16:34:29 20° 289° (WNW) 16:40:24 .
CUBEBUG 2 20 Jan 16:30:49 16:35:19 68° 61° (ENE) 16:40:00 437.445
DOVE 4 20 Jan 16:30:54 16:34:11 22° 274° (W) 16:37:28 437.250
KAITUO 1B 20 Jan 16:36:11 16:39:54 57° 255° (WSW) 16:43:38 145.475/437.950
DELFI C3 20 Jan 16:36:54 16:39:41 19° 28° (NNE) 16:42:28 145.870
UWE-3 20 Jan 16:37:03 16:41:32 57° 56° (NE) 16:46:08 435.000/436.395/437.385
XW-2F 20 Jan 16:37:17 16:41:00 49° 257° (WSW) 16:44:43 145.980 - 146.000
ESTCUBE 1 20 Jan 16:43:37 16:46:37 18° 1° (N) 16:49:36 437.505/2401.250
VELOX 1 20 Jan 16:45:22 16:48:33 20° 341° (NNW) 16:51:45 145.980
SPROUT 20 Jan 16:45:34 16:48:22 17° 347° (NNW) 16:51:11 437.525
XW-2D 20 Jan 16:46:48 16:50:26 41° 260° (W) 16:54:06 145.860 - 145.880
NUDT-PHONESAT 20 Jan 16:48:01 16:51:40 49° 257° (WSW) 16:55:21 437.300
AO-85 20 Jan 16:49:01 16:53:19 46° 192° (SSW) 16:57:59 145.980
UKube-1 20 Jan 16:51:38 16:55:26 30° 322° (NW) 16:59:12 .
HO-68 20 Jan 16:51:50 16:59:00 73° 247° (WSW) 17:06:13 435.675
KKS-1 20 Jan 16:52:37 16:56:50 39° 99° (E) 17:01:02 437.445
MOZHAYETS 4 20 Jan 16:58:01 17:02:28 44° 312° (NW) 17:06:53
CUBESAT XI-V 20 Jan 16:59:49 17:04:30 75° 298° (WNW) 17:09:07 437.345
ZACube-1 20 Jan 17:01:39 17:06:06 56° 56° (NE) 17:10:38 437.345
DX 1 20 Jan 17:02:42 17:06:16 25° 330° (NNW) 17:09:49 434.975-435.025
BEESAT 20 Jan 17:02:59 17:07:43 58° 307° (NW) 17:12:26 436.000
XW-2B 20 Jan 17:04:40 17:08:10 33° 264° (W) 17:11:41 145.730 - 145.750
AO-73 20 Jan 17:08:39 17:13:07 57° 56° (NE) 17:17:38 145.935
STARS 20 Jan 17:09:39 17:13:35 31° 94° (E) 17:17:32 437.465
BEESAT 2 20 Jan 17:13:02 17:16:18 23° 218° (SW) 17:19:32 435.950
XW-2A 20 Jan 17:14:09 17:17:34 62° 62° (ENE) 17:20:58 145.665 - 145.685
Max Valier Satellite 20 Jan 17:20:25 17:23:18 21° 36° (NE) 17:26:11 145.860
LO-87 20 Jan 17:28:57 17:30:38 13° 15° (NNE) 17:32:18 145.935 - 145.965
AAUSAT CUBESAT 2 20 Jan 17:29:54 17:34:02 86° 71° (ENE) 17:38:12 437.432
LilacSat-2 20 Jan 17:33:02 17:36:08 22° 272° (W) 17:39:15 437.200
XW-2C 20 Jan 17:35:44 17:38:49 22° 272° (W) 17:41:53 145.795 - 145.815
50 SAT 20 Jan 17:38:28 17:39:37 12° 338° (NNW) 17:40:44 437.505
EO-88 20 Jan 17:40:02 17:42:53 21° 37° (NE) 17:45:43 145.990 - 145.960
Oscar 11 20 Jan 17:42:28 17:46:49 66° 59° (ENE) 17:51:09 .
PCSat 20 Jan 17:43:34 17:48:06 27° 232° (SW) 17:52:37 145.827
CUTE-I 20 Jan 17:46:09 17:50:51 31° 270° (W) 17:55:34 437.470
SEEDS 20 Jan 17:47:29 17:51:36 51° 258° (WSW) 17:55:44 437.485
CUTE 1.7 + AOD 2 20 Jan 17:59:50 18:03:46 34° 265° (W) 18:07:42 437.475
ITUPSAT 1 20 Jan 18:00:50 18:05:15 37° 321° (NW) 18:09:40 437.325
CUBEBUG 2 20 Jan 18:07:57 18:12:15 41° 263° (W) 18:16:42 437.445
DELFI C3 20 Jan 18:10:01 18:13:42 40° 51° (NE) 18:17:23 145.870
STRAND 1 20 Jan 18:10:32 18:14:56 27° 88° (E) 18:19:18 437.568
KAITUO 1B 20 Jan 18:12:10 18:14:39 17° 277° (W) 18:17:07 145.475/437.950
UWE-3 20 Jan 18:13:41 18:18:08 51° 259° (W) 18:22:42 435.000/436.395/437.385
XW-2F 20 Jan 18:13:46 18:15:58 15° 280° (W) 18:18:11 145.980 - 146.000
YUBILEINY 20 Jan 18:14:11 18:17:21 12° 31° (NNE) 18:20:31 435.215
ESTCUBE 1 20 Jan 18:18:46 18:22:15 22° 25° (NNE) 18:25:45 437.505/2401.250
SPROUT 20 Jan 18:20:17 18:23:02 17° 11° (N) 18:25:49 437.525
VELOX 1 20 Jan 18:20:55 18:23:50 18° 5° (N) 18:26:44 145.980
XW-2D 20 Jan 18:23:55 18:25:37 12° 283° (WNW) 18:27:19 145.860 - 145.880
NUDT-PHONESAT 20 Jan 18:24:13 18:26:22 15° 279° (W) 18:28:31 437.300
UKube-1 20 Jan 18:27:29 18:30:31 19° 345° (NNW) 18:33:32 .
AO-85 20 Jan 18:29:07 18:33:09 30° 215° (SW) 18:37:25 145.980
KKS-1 20 Jan 18:29:15 18:33:43 70° 300° (WNW) 18:38:09 437.445
RS-15 20 Jan 18:29:26 18:37:19 21° 265° (W) 18:44:58 29.354- 29.394
MOZHAYETS 4 20 Jan 18:35:11 18:38:52 24° 335° (NNW) 18:42:32
FO-29 20 Jan 18:36:57 18:41:22 25° 83° (E) 18:45:37 435.910
CUBESAT XI-V 20 Jan 18:37:20 18:41:27 32° 321° (NW) 18:45:33 437.345
ZACube-1 20 Jan 18:38:03 18:42:31 52° 258° (WSW) 18:47:02 437.345
DX 1 20 Jan 18:38:29 18:41:24 18° 353° (N) 18:44:18 434.975-435.025
BEESAT 20 Jan 18:40:49 18:44:54 29° 330° (NNW) 18:49:00 436.000
HO-68 20 Jan 18:41:35 18:47:55 33° 272° (W) 18:54:18 435.675
XW-2B 20 Jan 18:43:03 18:43:30 10° 287° (WNW) 18:43:56 145.730 - 145.750
AO-73 20 Jan 18:45:03 18:49:29 51° 258° (WSW) 18:53:59 145.935
STARS 20 Jan 18:46:00 18:50:26 87° 296° (WNW) 18:54:53 437.465
XW-2A 20 Jan 18:47:22 18:50:30 32° 263° (W) 18:53:38 145.665 - 145.685
Max Valier Satellite 20 Jan 18:52:54 18:56:33 53° 58° (ENE) 19:00:15 145.860
UNISAT 6 20 Jan 18:59:10 18:59:48 10° 67° (ENE) 19:00:25 437.425
LO-87 20 Jan 19:00:11 19:03:01 22° 38° (NE) 19:05:53 145.935 - 145.965
AAUSAT CUBESAT 2 20 Jan 19:06:21 19:09:58 29° 268° (W) 19:13:37 437.432
EO-88 20 Jan 19:12:24 19:16:00 55° 58° (ENE) 19:19:36 145.990 - 145.960
Oscar 11 20 Jan 19:19:05 19:23:14 41° 262° (W) 19:27:23 .
SEEDS 20 Jan 19:25:32 19:28:14 16° 280° (W) 19:30:56 437.485
PCSat 20 Jan 19:28:47 19:29:54 11° 256° (WSW) 19:31:01 145.827
CUTE-I 20 Jan 19:31:00 19:32:43 11° 294° (WNW) 19:34:25 437.470
ITUPSAT 1 20 Jan 19:38:27 19:42:11 23° 344° (NNW) 19:45:55 437.325
CUTE 1.7 + AOD 2 20 Jan 19:39:26 19:40:53 11° 288° (WNW) 19:42:19 437.475
DELFI C3 20 Jan 19:44:28 19:48:21 64° 253° (WSW) 19:52:17 145.870
CUBEBUG 2 20 Jan 19:47:36 19:50:07 15° 287° (WNW) 19:52:42 437.445
STRAND 1 20 Jan 19:49:45 19:54:56 75° 111° (ESE) 20:00:05 437.568
UWE-3 20 Jan 19:52:34 19:55:39 18° 282° (WNW) 19:58:48 435.000/436.395/437.385
ESTCUBE 1 20 Jan 19:54:01 19:58:18 42° 47° (NE) 20:02:34 437.505/2401.250
SPROUT 20 Jan 19:54:21 19:57:52 25° 34° (NE) 20:01:25 437.525
VELOX 1 20 Jan 19:55:41 19:59:11 24° 28° (NNE) 20:02:41 145.980
UKube-1 20 Jan 20:02:29 20:05:22 18° 9° (N) 20:08:16 .
YUBILEINY 20 Jan 20:04:21 20:10:54 24° 60° (ENE) 20:17:26 435.215
KKS-1 20 Jan 20:05:57 20:09:50 30° 324° (NW) 20:13:43 437.445
AO-85 20 Jan 20:10:01 20:12:28 14° 237° (WSW) 20:14:59 145.980
MOZHAYETS 4 20 Jan 20:11:40 20:14:51 18° 358° (N) 20:18:02
DX 1 20 Jan 20:13:20 20:16:25 19° 16° (NNE) 20:19:32 434.975-435.025
CUBESAT XI-V 20 Jan 20:14:29 20:17:51 20° 345° (NNW) 20:21:11 437.345
ZACube-1 20 Jan 20:16:42 20:19:49 18° 281° (WNW) 20:22:58 437.345
BEESAT 20 Jan 20:18:05 20:21:38 21° 354° (N) 20:25:10 436.000
TIGRISAT 20 Jan 20:18:44 20:22:34 24° 86° (E) 20:26:23 435.000
FO-29 20 Jan 20:22:07 20:27:37 68° 108° (ESE) 20:32:48 435.910
STARS 20 Jan 20:22:30 20:26:30 34° 318° (NW) 20:30:30 437.465
AO-73 20 Jan 20:23:41 20:26:45 17° 282° (WNW) 20:29:51 145.935
Max Valier Satellite 20 Jan 20:26:55 20:30:30 43° 260° (W) 20:34:07 145.860
LO-87 20 Jan 20:32:23 20:35:56 59° 60° (ENE) 20:39:31 145.935 - 145.965
UNISAT 6 20 Jan 20:33:56 20:38:04 29° 90° (E) 20:42:11 437.425
HO-68 20 Jan 20:34:47 20:38:14 14° 299° (WNW) 20:41:41 435.675
50 SAT 20 Jan 20:39:31 20:40:46 12° 23° (NNE) 20:42:01 437.505
EO-88 20 Jan 20:46:19 20:49:47 39° 261° (W) 20:53:16 145.990 - 145.960
PRISM 20 Jan 20:50:24 20:52:39 14° 80° (E) 20:54:53 437.425
Oscar 11 20 Jan 20:58:18 21:00:32 14° 285° (WNW) 21:02:47 .
ITUPSAT 1 20 Jan 21:15:16 21:18:51 21° 8° (N) 21:22:26 437.325
DELFI C3 20 Jan 21:21:00 21:23:51 19° 276° (W) 21:26:42 145.870
AIST 2D 20 Jan 21:29:00 21:31:01 14° 82° (E) 21:33:01 435.315
SPROUT 20 Jan 21:29:00 21:33:13 58° 56° (ENE) 21:37:27 437.525
STRAND 1 20 Jan 21:29:06 21:34:01 47° 315° (NW) 21:38:56 437.568
QB50P2 20 Jan 21:29:43 21:30:42 11° 71° (ENE) 21:31:40 145.880/145.840
ESTCUBE 1 20 Jan 21:30:27 21:35:00 73° 251° (WSW) 21:39:32 437.505/2401.250
VELOX 1 20 Jan 21:30:44 21:34:57 48° 51° (NE) 21:39:12 145.980
UKube-1 20 Jan 21:36:48 21:40:22 26° 32° (NNE) 21:43:56 .
KKS-1 20 Jan 21:42:17 21:45:26 19° 347° (NNW) 21:48:35 437.445
MOZHAYETS 4 20 Jan 21:47:15 21:50:49 22° 22° (NNE) 21:54:22
DX 1 20 Jan 21:47:51 21:51:42 32° 40° (NE) 21:55:35 434.975-435.025
CUBESAT XI-V 20 Jan 21:50:45 21:53:59 19° 8° (N) 21:57:11 437.345
BEESAT 20 Jan 21:54:30 21:58:14 23° 17° (NNE) 22:01:58 436.000
TIGRISAT 20 Jan 21:55:20 22:00:01 70° 108° (ESE) 22:04:44 435.000
YUBILEINY 20 Jan 21:57:30 22:05:52 51° 87° (E) 22:14:13 435.215
STARS 20 Jan 21:58:44 22:01:57 20° 342° (NNW) 22:05:11 437.465
DUCHIFAT 1 20 Jan 21:59:02 22:00:54 12° 75° (ENE) 22:02:45 145.980
EO-79 20 Jan 21:59:45 22:02:10 15° 77° (ENE) 22:04:36 145.935-145.965
Max Valier Satellite 20 Jan 22:03:30 22:05:17 13° 282° (WNW) 22:07:03 145.860
LO-87 20 Jan 22:06:10 22:09:32 36° 262° (W) 22:12:56 145.935 - 145.965
FO-29 20 Jan 22:07:25 22:12:46 50° 314° (NW) 22:17:47 435.910
50 SAT 20 Jan 22:09:04 22:11:40 25° 45° (NE) 22:14:17 437.505
UNISAT 6 20 Jan 22:10:39 22:15:22 85° 112° (ESE) 22:20:07 437.425
EO-88 20 Jan 22:23:02 22:24:24 12° 283° (WNW) 22:25:47 145.990 - 145.960
PRISM 20 Jan 22:25:00 22:28:56 45° 102° (ESE) 22:32:52 437.425
POLYITAN 1 20 Jan 22:34:19 22:37:42 22° 86° (E) 22:41:04 437.675
NANOSAT C BR1 20 Jan 22:50:02 22:53:34 24° 88° (E) 22:57:05 145.865
ITUPSAT 1 20 Jan 22:51:29 22:55:38 30° 31° (NNE) 22:59:48 437.325
BUGSAT 1 20 Jan 23:00:46 23:02:44 13° 76° (ENE) 23:04:42 437.445
AIST 2D 20 Jan 23:01:31 23:04:58 52° 104° (ESE) 23:08:23 435.315
QB50P2 20 Jan 23:03:55 23:07:49 32° 94° (E) 23:11:43 145.880/145.840
SPROUT 20 Jan 23:05:09 23:09:16 46° 259° (W) 23:13:26 437.525
VELOX 1 20 Jan 23:07:04 23:11:26 60° 253° (WSW) 23:15:48 145.980
STRAND 1 20 Jan 23:08:12 23:12:26 27° 338° (NNW) 23:16:41 437.568
ESTCUBE 1 20 Jan 23:08:49 23:12:32 24° 273° (W) 23:16:14 437.505/2401.250
UKube-1 20 Jan 23:11:37 23:15:50 57° 54° (NE) 23:20:05 .
KKS-1 20 Jan 23:17:43 23:20:49 19° 11° (N) 23:23:55 437.445
MOZHAYETS 4 20 Jan 23:22:48 23:27:08 39° 45° (NE) 23:31:28
DX 1 20 Jan 23:23:13 23:27:33 80° 63° (ENE) 23:31:55 434.975-435.025
CUBESAT XI-V 20 Jan 23:26:21 23:30:15 27° 32° (NNE) 23:34:08 437.345
O/OREOS (USA 219) 20 Jan 23:28:38 23:31:09 15° 104° (ESE) 23:33:40 437.305
BEESAT 20 Jan 23:30:43 23:35:08 38° 41° (NE) 23:39:34 436.000
TIGRISAT 20 Jan 23:32:11 23:36:38 45° 311° (NW) 23:41:08 435.000
Gurwin Techsat 1B 20 Jan 23:33:06 23:36:24 16° 74° (ENE) 23:39:41 435.225
DUCHIFAT 1 20 Jan 23:33:44 23:37:45 38° 97° (E) 23:41:45 145.980
STARS 20 Jan 23:34:11 23:37:08 18° 5° (N) 23:40:07 437.465
EO-79 20 Jan 23:34:52 23:39:01 44° 100° (E) 23:43:08 145.935-145.965
50 SAT 20 Jan 23:39:59 23:43:06 90° 84° (E) 23:46:15 437.505
LO-87 20 Jan 23:43:07 23:43:58 11° 284° (WNW) 23:44:50 145.935 - 145.965
UNISAT 6 20 Jan 23:47:31 23:51:51 38° 315° (NW) 23:56:13 437.425
Oscar 19 20 Jan 23:47:43 23:51:37 21° 81° (E) 23:55:30 437.125/150
FO-29 20 Jan 23:52:21 23:57:05 29° 340° (NNW) 00:01:33 435.910
YUBILEINY 20 Jan 23:53:32 00:02:24 82° 294° (WNW) 00:11:15 435.215
PRISM 21 Jan 00:00:22 00:04:22 56° 305° (NW) 00:08:22 437.425
AO-91 21 Jan 00:01:07 00:04:21 22° 88° (E) 00:07:50 145.960
POLYITAN 1 21 Jan 00:09:54 00:14:14 68° 109° (ESE) 00:18:31 437.675
AO-7 21 Jan 00:21:56 00:26:37 16° 61° (ENE) 00:31:15 .
NANOSAT C BR1 21 Jan 00:25:36 00:29:56 77° 112° (ESE) 00:34:13 145.865
ITUPSAT 1 21 Jan 00:28:09 00:32:54 61° 54° (NE) 00:37:41 437.325
AIST 2D 21 Jan 00:34:47 00:38:07 40° 306° (NW) 00:41:24 435.315
BUGSAT 1 21 Jan 00:35:15 00:39:14 39° 98° (E) 00:43:15 437.445
QB50P2 21 Jan 00:39:43 00:44:03 81° 298° (WNW) 00:48:22 145.880/145.840
SPROUT 21 Jan 00:43:41 00:46:13 15° 282° (WNW) 00:48:46 437.525
VELOX 1 21 Jan 00:45:32 00:48:45 20° 276° (W) 00:51:59 145.980
STRAND 1 21 Jan 00:46:33 00:50:28 23° 2° (N) 00:54:23 437.568
UKube-1 21 Jan 00:47:50 00:52:01 48° 257° (WSW) 00:56:14 .
KKS-1 21 Jan 00:52:35 00:56:22 28° 34° (NE) 01:00:10 437.445
MOZHAYETS 4 21 Jan 00:59:23 01:04:04 83° 248° (WSW) 01:08:46
DX 1 21 Jan 01:00:14 01:04:11 33° 265° (W) 01:08:08 434.975-435.025
CUBESAT XI-V 21 Jan 01:02:26 01:07:01 56° 55° (NE) 01:11:37 437.345
O/OREOS (USA 219) 21 Jan 01:05:22 01:09:35 40° 126° (SE) 01:13:47 437.305
BEESAT 21 Jan 01:07:49 01:12:38 89° 65° (ENE) 01:17:30 436.000
STARS 21 Jan 01:08:52 01:12:24 24° 28° (NNE) 01:15:58 437.465
TIGRISAT 21 Jan 01:08:53 01:12:34 24° 333° (NNW) 01:16:17 435.000
DUCHIFAT 1 21 Jan 01:09:27 01:13:44 69° 299° (WNW) 01:17:59 145.980
EO-79 21 Jan 01:10:44 01:14:59 61° 302° (WNW) 01:19:13 145.935-145.965
Gurwin Techsat 1B 21 Jan 01:12:41 01:17:47 43° 98° (E) 01:22:51 435.225
50 SAT 21 Jan 01:12:50 01:15:15 20° 268° (W) 01:17:41 437.505
UNISAT 6 21 Jan 01:24:10 01:27:42 22° 338° (NNW) 01:31:16 437.425
Oscar 19 21 Jan 01:26:54 01:32:04 56° 105° (ESE) 01:37:09 437.125/150
PRISM 21 Jan 01:35:48 01:39:07 24° 327° (NNW) 01:42:25 437.425
FO-29 21 Jan 01:36:23 01:41:00 25° 6° (N) 01:45:19 435.910
AO-91 21 Jan 01:37:26 01:41:27 70° 109° (ESE) 01:45:57 145.960
POLYITAN 1 21 Jan 01:45:50 01:49:56 42° 311° (NW) 01:54:01 437.675
YUBILEINY 21 Jan 01:51:59 02:00:26 47° 324° (NW) 02:08:52 435.215
NANOSAT C BR1 21 Jan 02:01:29 02:05:28 38° 313° (NW) 02:09:27 145.865
ITUPSAT 1 21 Jan 02:06:14 02:10:55 50° 257° (WSW) 02:15:39 437.325
AIST 2D 21 Jan 02:08:16 02:10:36 17° 328° (NNW) 02:12:56 435.315
BUGSAT 1 21 Jan 02:10:39 02:14:53 67° 300° (WNW) 02:19:07 437.445
AO-7 21 Jan 02:14:50 02:22:24 35° 90° (E) 02:29:55 .
QB50P2 21 Jan 02:15:40 02:19:30 32° 319° (NW) 02:23:18 145.880/145.840
STRAND 1 21 Jan 02:24:12 02:28:32 28° 26° (NNE) 02:32:53 437.568
UKube-1 21 Jan 02:26:24 02:29:03 16° 280° (W) 02:31:44 .
KKS-1 21 Jan 02:28:02 02:32:25 63° 56° (ENE) 02:36:50 437.445
ITAMSAT 1 21 Jan 02:33:02 02:37:27 27° 88° (E) 02:41:52 435.822/435.867
DOVE 4 21 Jan 02:35:46 02:37:47 13° 75° (ENE) 02:39:50 437.250
MOZHAYETS 4 21 Jan 02:37:50 02:41:52 28° 271° (W) 02:45:55
CUBESAT XI-V 21 Jan 02:39:56 02:44:32 52° 258° (WSW) 02:49:08 437.345
DX 1 21 Jan 02:40:31 02:41:42 11° 287° (WNW) 02:42:54 434.975-435.025
STARS 21 Jan 02:43:52 02:48:06 50° 51° (NE) 02:52:22 437.465
O/OREOS (USA 219) 21 Jan 02:44:14 02:48:46 89° 178° (S) 02:53:17 437.305
TIGRISAT 21 Jan 02:44:58 02:48:05 18° 357° (N) 02:51:15 435.000
DUCHIFAT 1 21 Jan 02:45:16 02:48:57 28° 322° (NW) 02:52:37 145.980
EO-79 21 Jan 02:46:38 02:50:13 26° 325° (NW) 02:53:48 145.935-145.965
BEESAT 21 Jan 02:46:40 02:50:58 32° 267° (W) 02:55:19 436.000
Gurwin Techsat 1B 21 Jan 02:52:48 02:58:09 76° 301° (WNW) 03:03:29 435.225
UNISAT 6 21 Jan 03:00:05 03:03:12 18° 1° (N) 03:06:21 437.425
Oscar 19 21 Jan 03:06:24 03:11:32 59° 308° (NW) 03:16:38 437.125/150
PRISM 21 Jan 03:10:51 03:13:22 16° 350° (N) 03:15:52 437.425
AO-91 21 Jan 03:14:08 03:17:52 40° 309° (NW) 03:21:59 145.960
FO-29 21 Jan 03:19:43 03:25:02 34° 31° (NNE) 03:29:54 435.910
POLYITAN 1 21 Jan 03:21:41 03:24:58 22° 334° (NNW) 03:28:15 437.675
NANOSAT C BR1 21 Jan 03:37:13 03:40:23 20° 336° (NNW) 03:43:32 145.865
AIST 2D 21 Jan 03:41:44 03:42:40 11° 350° (N) 03:43:35 435.315
BUGSAT 1 21 Jan 03:46:11 03:49:47 28° 323° (NW) 03:53:24 437.445
ITUPSAT 1 21 Jan 03:46:37 03:49:52 18° 280° (W) 03:53:09 437.325
QB50P2 21 Jan 03:51:24 03:54:22 19° 342° (NNW) 03:57:20 145.880/145.840
YUBILEINY 21 Jan 03:51:36 03:59:35 36° 355° (N) 04:07:32 435.215
XW-2F 21 Jan 03:56:01 03:57:00 11° 75° (ENE) 03:57:58 145.980 - 146.000
STRAND 1 21 Jan 04:02:04 04:07:02 53° 49° (NE) 04:12:02 437.568
HO-68 21 Jan 04:03:24 04:07:26 15° 64° (ENE) 04:11:28 435.675
KKS-1 21 Jan 04:04:58 04:09:13 44° 259° (W) 04:13:30 437.445
XW-2D 21 Jan 04:05:13 04:07:04 13° 78° (ENE) 04:08:55 145.860 - 145.880
CUTE-I 21 Jan 04:07:04 04:10:25 17° 75° (ENE) 04:13:46 437.470
AO-7 21 Jan 04:08:09 04:16:36 72° 116° (ESE) 04:24:59 .
ITAMSAT 1 21 Jan 04:12:32 04:17:46 73° 112° (ESE) 04:22:59 435.822/435.867
M-CUBED/EXP-1 PRIME 21 Jan 04:12:34 04:15:09 19° 98° (E) 04:17:38 437.505
DOVE 4 21 Jan 04:12:40 04:16:39 40° 98° (E) 04:20:47 437.250
CUBESAT XI-V 21 Jan 04:19:41 04:22:56 18° 280° (W) 04:26:11 437.345
TIGRISAT 21 Jan 04:20:07 04:23:33 21° 20° (NNE) 04:27:02 435.000
STARS 21 Jan 04:20:10 04:24:29 57° 253° (WSW) 04:28:51 437.465
DUCHIFAT 1 21 Jan 04:20:48 04:23:37 18° 345° (NNW) 04:26:28 145.980
EO-79 21 Jan 04:22:10 04:24:57 17° 348° (NNW) 04:27:44 145.935-145.965
XW-2B 21 Jan 04:22:31 04:24:56 16° 82° (E) 04:27:20 145.730 - 145.750
O/OREOS (USA 219) 21 Jan 04:23:58 04:28:27 63° 354° (N) 04:32:56 437.305
BEESAT 21 Jan 04:28:45 04:30:17 11° 290° (WNW) 04:31:50 436.000
Gurwin Techsat 1B 21 Jan 04:32:51 04:37:41 36° 325° (NW) 04:42:31 435.225
UNISAT 6 21 Jan 04:35:08 04:38:43 23° 25° (NNE) 04:42:21 437.425
PRISM 21 Jan 04:44:53 04:47:27 16° 13° (NNE) 04:50:02 437.425
Oscar 19 21 Jan 04:45:43 04:50:14 31° 331° (NNW) 04:54:44 437.125/150
LilacSat-2 21 Jan 04:50:35 04:53:45 24° 89° (E) 04:56:52 437.200
AO-91 21 Jan 04:50:51 04:53:40 19° 332° (NNW) 04:56:41 145.960
XW-2C 21 Jan 04:52:35 04:55:42 23° 89° (E) 04:58:47 145.795 - 145.815
RS-15 21 Jan 04:56:53 05:00:20 12° 77° (ENE) 05:03:44 29.354- 29.394
POLYITAN 1 21 Jan 04:56:56 04:59:36 16° 357° (N) 05:02:17 437.675
FO-29 21 Jan 05:03:30 05:09:38 66° 55° (NE) 05:15:07 435.910
NANOSAT C BR1 21 Jan 05:12:18 05:14:55 16° 359° (N) 05:17:33 145.865
AIST 2D 21 Jan 05:13:26 05:14:35 11° 13° (NNE) 05:15:44 435.315
SEEDS 21 Jan 05:16:52 05:19:22 15° 78° (ENE) 05:21:51 437.485
BUGSAT 1 21 Jan 05:21:23 05:24:09 17° 346° (NNW) 05:26:56 437.445
QB50P2 21 Jan 05:26:17 05:28:57 16° 5° (N) 05:31:37 145.880/145.840
KAITUO 1B 21 Jan 05:26:37 05:29:58 30° 94° (E) 05:33:16 145.475/437.950
XW-2F 21 Jan 05:28:40 05:32:12 36° 97° (E) 05:35:41 145.980 - 146.000
CUTE 1.7 + AOD 2 21 Jan 05:29:29 05:32:52 22° 86° (E) 05:36:14 437.475
SO-50 21 Jan 05:30:46 05:33:37 17° 128° (SE) 05:36:29 436.795
NUDT-PHONESAT 21 Jan 05:37:12 05:40:37 33° 96° (E) 05:44:00 437.300
XW-2D 21 Jan 05:38:33 05:42:13 43° 100° (E) 05:45:50 145.860 - 145.880
STRAND 1 21 Jan 05:41:10 05:46:15 64° 252° (WSW) 05:51:23 437.568
CUBEBUG 2 21 Jan 05:43:22 05:47:17 25° 85° (E) 05:51:11 437.445
KKS-1 21 Jan 05:44:21 05:46:55 15° 282° (WNW) 05:49:29 437.445
M-CUBED/EXP-1 PRIME 21 Jan 05:46:38 05:50:16 67° 121° (ESE) 05:53:39 437.505
CUTE-I 21 Jan 05:46:47 05:51:53 44° 99° (E) 05:56:59 437.470
UWE-3 21 Jan 05:48:23 05:51:51 20° 81° (E) 05:55:18 435.000/436.395/437.385
DOVE 4 21 Jan 05:50:29 05:54:38 64° 301° (WNW) 05:58:57 437.250
YUBILEINY 21 Jan 05:50:42 05:58:57 41° 26° (NNE) 06:07:07 435.215
HO-68 21 Jan 05:50:59 05:57:33 36° 91° (E) 06:04:05 435.675
ITAMSAT 1 21 Jan 05:52:11 05:57:10 48° 314° (NW) 06:02:10 435.822/435.867
TIGRISAT 21 Jan 05:55:09 05:59:20 37° 43° (NE) 06:03:37 435.000
XW-2A 21 Jan 05:55:21 05:56:17 11° 78° (ENE) 05:57:11 145.665 - 145.685
DUCHIFAT 1 21 Jan 05:55:24 05:58:05 17° 8° (N) 06:00:45 145.980
XW-2B 21 Jan 05:56:11 05:59:56 54° 104° (ESE) 06:03:39 145.730 - 145.750
EO-79 21 Jan 05:56:43 05:59:29 17° 11° (NNE) 06:02:16 145.935-145.965
STARS 21 Jan 05:58:36 06:01:44 19° 277° (W) 06:04:54 437.465
O/OREOS (USA 219) 21 Jan 06:03:45 06:08:15 73° 18° (NNE) 06:12:46 437.305
